When you browse on this site, cookies collect data to enhance your experience and personalize the content and advertising you see.
Visit our Privacy Policy to learn more. By continuing to use the site, you agree to this use of cookies and data.
  • In Romania
  • List of Countries
  • For 7 days
  • Water Temperature
  • Satellite Maps
  • Weather Map
  • Weather Widgets
  • user-avatar
    Login

    Hourly Weather Azzano San Paolo

    Today, 25 April, Thursday

    Time Temperature Precipitation Wind Pressure Humidity
    00:00 +13°C° 0.1 mm 1 mps 739 mmHg 84%
    01:00 +12°C° 0.1 mm 1 mps 739 mmHg 84%
    02:00 +12°C° 0.1 mm 1 mps 740 mmHg 86%
    03:00 +12°C° 0.1 mm 1 mps 740 mmHg 87%
    04:00 +12°C° 0.1 mm 1 mps 740 mmHg 88%
    05:00 +12°C° 0 mm 1 mps 740 mmHg 87%
    06:00 +13°C° 0 mm 1 mps 740 mmHg 86%
    07:00 +13°C° 0 mm 0 mps 740 mmHg 84%
    08:00 +15°C° 0 mm 1 mps 740 mmHg 79%
    09:00 +16°C° 0 mm 1 mps 740 mmHg 74%
    10:00 +18°C° 0 mm 2 mps 740 mmHg 68%
    11:00 +18°C° 0.1 mm 2 mps 740 mmHg 65%
    12:00 +19°C° 0.1 mm 2 mps 740 mmHg 62%
    13:00 +20°C° 0.1 mm 3 mps 740 mmHg 59%
    14:00 +19°C° 0.5 mm 3 mps 740 mmHg 63%
    15:00 +19°C° 0.5 mm 3 mps 739 mmHg 68%
    16:00 +18°C° 0.5 mm 2 mps 739 mmHg 72%
    17:00 +18°C° 0.3 mm 2 mps 739 mmHg 75%
    18:00 +17°C° 0.3 mm 2 mps 739 mmHg 78%
    19:00 +16°C° 0.3 mm 1 mps 739 mmHg 80%
    20:00 +15°C° 0.1 mm 2 mps 739 mmHg 81%
    21:00 +15°C° 0.1 mm 2 mps 739 mmHg 82%
    22:00 +14°C° 0.1 mm 2 mps 739 mmHg 83%
    23:00 +14°C° 0.2 mm 2 mps 739 mmHg 84%

    Tomorrow, 26 April, Friday

    Time Temperature Precipitation Wind Pressure Humidity
    00:00 +13°C° 0.2 mm 2 mps 738 mmHg 86%
    01:00 +13°C° 0.2 mm 2 mps 738 mmHg 87%
    02:00 +13°C° 0.6 mm 2 mps 737 mmHg 88%
    03:00 +13°C° 0.6 mm 2 mps 737 mmHg 90%
    04:00 +12°C° 0.6 mm 2 mps 736 mmHg 91%
    05:00 +12°C° 0.7 mm 3 mps 736 mmHg 92%
    06:00 +12°C° 0.7 mm 3 mps 736 mmHg 93%
    07:00 +12°C° 0.7 mm 3 mps 736 mmHg 93%
    08:00 +13°C° 0.8 mm 4 mps 736 mmHg 91%
    09:00 +14°C° 0.8 mm 4 mps 736 mmHg 88%
    10:00 +15°C° 0.8 mm 4 mps 736 mmHg 85%
    11:00 +15°C° 0.7 mm 4 mps 736 mmHg 78%
    12:00 +17°C° 0.7 mm 3 mps 737 mmHg 71%
    13:00 +18°C° 0.7 mm 2 mps 737 mmHg 64%
    14:00 +18°C° 0.8 mm 2 mps 737 mmHg 62%
    15:00 +18°C° 0.8 mm 2 mps 737 mmHg 60%
    16:00 +20°C° 0.8 mm 1 mps 737 mmHg 58%
    17:00 +18°C° 1.3 mm 1 mps 737 mmHg 63%
    18:00 +16°C° 1.3 mm 1 mps 737 mmHg 67%
    19:00 +14°C° 1.3 mm 1 mps 737 mmHg 72%
    20:00 +13°C° 0.5 mm 2 mps 738 mmHg 73%
    21:00 +13°C° 0.5 mm 2 mps 738 mmHg 74%
    22:00 +12°C° 0.5 mm 2 mps 739 mmHg 75%
    23:00 +12°C° 0 mm 2 mps 739 mmHg 74%

    Day after tomorrow, 27 April, Saturday

    Time Temperature Precipitation Wind Pressure Humidity
    00:00 +10°C° 0 mm 2 mps 740 mmHg 74%
    01:00 +10°C° 0 mm 2 mps 740 mmHg 74%
    02:00 +9°C° 0 mm 2 mps 740 mmHg 73%
    03:00 +9°C° 0 mm 2 mps 740 mmHg 73%
    04:00 +8°C° 0 mm 2 mps 740 mmHg 73%
    05:00 +9°C° 0 mm 2 mps 740 mmHg 71%
    06:00 +10°C° 0 mm 2 mps 740 mmHg 69%
    07:00 +11°C° 0 mm 1 mps 740 mmHg 67%
    08:00 +13°C° 0 mm 1 mps 740 mmHg 60%
    09:00 +15°C° 0 mm 1 mps 740 mmHg 52%
    10:00 +18°C° 0 mm 1 mps 740 mmHg 44%
    11:00 +18°C° 0 mm 2 mps 739 mmHg 42%
    12:00 +19°C° 0 mm 2 mps 739 mmHg 40%
    13:00 +20°C° 0 mm 2 mps 739 mmHg 38%
    14:00 +20°C° 0 mm 2 mps 738 mmHg 39%
    15:00 +20°C° 0 mm 3 mps 738 mmHg 40%
    16:00 +20°C° 0 mm 3 mps 738 mmHg 40%
    17:00 +18°C° 0 mm 2 mps 737 mmHg 45%
    18:00 +17°C° 0 mm 2 mps 737 mmHg 49%
    19:00 +15°C° 0 mm 1 mps 737 mmHg 54%
    20:00 +14°C° 0 mm 1 mps 737 mmHg 57%
    21:00 +13°C° 0 mm 1 mps 738 mmHg 60%
    22:00 +13°C° 0 mm 1 mps 738 mmHg 64%
    23:00 +12°C° 0.6 mm 1 mps 738 mmHg 69%

    28 April, Sunday

    Time Temperature Precipitation Wind Pressure Humidity
    00:00 +12°C° 0.6 mm 1 mps 738 mmHg 75%
    01:00 +12°C° 0.6 mm 1 mps 738 mmHg 81%
    02:00 +11°C° 0.7 mm 1 mps 737 mmHg 83%
    03:00 +11°C° 0.7 mm 1 mps 737 mmHg 85%
    04:00 +10°C° 0.7 mm 1 mps 737 mmHg 87%
    05:00 +11°C° 0.5 mm 1 mps 737 mmHg 85%
    06:00 +11°C° 0.5 mm 1 mps 737 mmHg 83%
    07:00 +12°C° 0.5 mm 1 mps 737 mmHg 80%
    08:00 +12°C° 0.4 mm 2 mps 737 mmHg 74%
    09:00 +13°C° 0.4 mm 2 mps 737 mmHg 67%
    10:00 +13°C° 0.4 mm 2 mps 737 mmHg 60%
    11:00 +13°C° 0.3 mm 2 mps 737 mmHg 60%
    12:00 +13°C° 0.3 mm 2 mps 737 mmHg 60%
    13:00 +13°C° 0.3 mm 2 mps 737 mmHg 60%
    14:00 +13°C° 0.3 mm 2 mps 737 mmHg 61%
    15:00 +13°C° 0.3 mm 2 mps 737 mmHg 62%
    16:00 +13°C° 0.3 mm 2 mps 737 mmHg 63%
    17:00 +13°C° 0 mm 1 mps 737 mmHg 65%
    18:00 +12°C° 0 mm 1 mps 738 mmHg 67%
    19:00 +12°C° 0 mm 1 mps 738 mmHg 70%
    20:00 +11°C° 0 mm 1 mps 739 mmHg 70%
    21:00 +11°C° 0 mm 1 mps 739 mmHg 71%
    22:00 +10°C° 0 mm 1 mps 740 mmHg 71%
    23:00 +10°C° 0 mm 1 mps 740 mmHg 70%

    29 April, Monday

    Time Temperature Precipitation Wind Pressure Humidity
    00:00 +8°C° 0 mm 2 mps 740 mmHg 70%
    01:00 +8°C° 0 mm 2 mps 740 mmHg 69%
    02:00 +9°C° 0 mm 1 mps 740 mmHg 68%
    03:00 +9°C° 0 mm 1 mps 740 mmHg 67%
    04:00 +9°C° 0 mm 1 mps 740 mmHg 66%
    05:00 +10°C° 0 mm 1 mps 740 mmHg 65%
    06:00 +11°C° 0 mm 1 mps 740 mmHg 65%
    07:00 +11°C° 0 mm 1 mps 739 mmHg 65%
    08:00 +13°C° 0 mm 1 mps 739 mmHg 58%
    09:00 +16°C° 0 mm 1 mps 739 mmHg 51%
    10:00 +19°C° 0 mm 1 mps 739 mmHg 44%
    11:00 +18°C° 0 mm 2 mps 739 mmHg 42%
    12:00 +19°C° 0 mm 2 mps 738 mmHg 41%
    13:00 +20°C° 0 mm 3 mps 738 mmHg 40%
    14:00 +20°C° 0 mm 3 mps 738 mmHg 41%
    15:00 +20°C° 0 mm 3 mps 737 mmHg 42%
    16:00 +20°C° 0 mm 3 mps 737 mmHg 43%
    17:00 +18°C° 0 mm 2 mps 737 mmHg 48%
    18:00 +17°C° 0 mm 2 mps 737 mmHg 53%
    19:00 +16°C° 0 mm 1 mps 737 mmHg 58%
    20:00 +14°C° 0 mm 2 mps 738 mmHg 59%
    21:00 +13°C° 0 mm 2 mps 738 mmHg 61%
    22:00 +12°C° 0 mm 2 mps 739 mmHg 62%
    23:00 +12°C° 0 mm 2 mps 739 mmHg 62%

    30 April, Tuesday

    Time Temperature Precipitation Wind Pressure Humidity
    00:00 +10°C° 0 mm 2 mps 739 mmHg 62%
    01:00 +9°C° 0 mm 2 mps 739 mmHg 62%
    02:00 +9°C° 0 mm 2 mps 739 mmHg 62%
    03:00 +10°C° 0 mm 1 mps 738 mmHg 62%
    04:00 +10°C° 0 mm 1 mps 738 mmHg 62%
    05:00 +10°C° 0 mm 1 mps 738 mmHg 61%
    06:00 +11°C° 0 mm 1 mps 738 mmHg 60%
    07:00 +12°C° 0 mm 1 mps 738 mmHg 60%
    08:00 +14°C° 0 mm 1 mps 738 mmHg 55%
    09:00 +16°C° 0 mm 1 mps 737 mmHg 51%
    10:00 +19°C° 0 mm 1 mps 737 mmHg 47%
    11:00 +19°C° 0 mm 2 mps 737 mmHg 45%
    12:00 +20°C° 0 mm 2 mps 737 mmHg 44%
    13:00 +21°C° 0 mm 2 mps 736 mmHg 43%
    14:00 +21°C° 0 mm 2 mps 736 mmHg 43%
    15:00 +21°C° 0 mm 2 mps 736 mmHg 43%
    16:00 +21°C° 0 mm 2 mps 736 mmHg 44%
    17:00 +20°C° 0 mm 2 mps 736 mmHg 48%
    18:00 +19°C° 0 mm 1 mps 736 mmHg 53%
    19:00 +18°C° 0 mm 1 mps 736 mmHg 58%
    20:00 +16°C° 0 mm 1 mps 736 mmHg 60%
    21:00 +15°C° 0 mm 1 mps 737 mmHg 62%
    22:00 +14°C° 0 mm 1 mps 737 mmHg 64%
    23:00 +13°C° 0 mm 1 mps 737 mmHg 66%
    Show more